Regional Weather Roundup
Issued by NWS

Home | Current Version | Previous Version | Graphics & Text | Print | Product List | Glossary On
Versions: 1 2 3 4 5 6 7 8 9 10 11 12 13 14 15 16 17 18 19 20 21 22 23 24 25 26 27 28 29 30 31 32 33 34 35 36 37 38 39 40 41 42 43 44 45 46 47 48 49 50
000
ASUS43 KFSD 111402
RWRSD

WEATHER ROUNDUP FOR SOUTH DAKOTA
NATIONAL WEATHER SERVICE SIOUX FALLS SD
900 AM CDT FRI JUL 11 2014

NOTE: "FAIR" INDICATES FEW OR NO CLOUDS BELOW 12,000 FEET WITH NO
SIGNIFICANT WEATHER AND/OR OBSTRUCTIONS TO VISIBILITY.


SDZ001>005-009-010-012>017-111500-
NORTHWEST AND NORTH CENTRAL SOUTH DAKOTA

CITY           SKY/WX    TMP DP  RH WIND       PRES   REMARKS
BUFFALO          N/A     70  63  78 NE15      29.95R
FAITH            N/A     73  68  84 N9        29.95R
MOBRIDGE       SUNNY     72  68  87 NW7       29.87R
$$

SDZ012>016-024>037-041>051-057-063-072>074-111500-
SOUTHWEST AND SOUTH CENTRAL SOUTH DAKOTA

CITY           SKY/WX    TMP DP  RH WIND       PRES   REMARKS
RAPID CTY ARPT SUNNY     76  62  62 NW5       29.99R
PIERRE         SUNNY     75  67  76 W6        29.89R
CUSTER         SUNNY     73  56  54 NE3       30.13R
ELLSWORTH AFB  SUNNY     76  61  60 N7        29.99R
PHILIP         SUNNY     75  64  68 W3        29.92R
PINE RIDGE     MOSUNNY   71  65  81 CALM      30.00R
WINNER         FAIR      78  64  61 VRB3      29.92R
$$

SDZ004>011-016>023-039-040-111500-
NORTHEAST SOUTH DAKOTA

CITY           SKY/WX    TMP DP  RH WIND       PRES   REMARKS
ABERDEEN       SUNNY     74  69  85 CALM      29.87R
WATERTOWN      MOSUNNY   74  67  78 SW13      29.90R
SISSETON         N/A     78  70  76 W12       29.85R
$$

SDZ017-020-022-023-036>040-048>070-111500-
SOUTHEAST SOUTH DAKOTA

CITY           SKY/WX    TMP DP  RH WIND       PRES   REMARKS
SIOUX FALLS    PTSUNNY   74  67  78 SW7       29.88F
HURON          MOSUNNY   77  67  71 S6        29.87R
CHAMBERLAIN    SUNNY     76  66  72 NW8       29.89R
MITCHELL       MOSUNNY   75  69  81 SW8       29.88R
YANKTON        CLOUDY    72  66  83 S14G20    29.91R
$$

ABBREVIATIONS USED IN REMARKS
   TC - TEMPERATURE IN CELSIUS
  WCI - WIND CHILL INDEX
   HX - HEAT INDEX
  VSB - VISIBILITY



USA.gov is the U.S. government's official web portal to all federal, state and local government web resources and services.